Other Public Products
Issued by NWS Grand Forks, ND

Home | Current Version | Previous Version | Text Only | Print | Product List | Glossary On
Versions: 1 2 3 4 5 6 7 8 9 10 11 12 13 14 15 16 17 18 19 20 21 22 23 24 25 26 27 28 29 30 31 32 33 34 35 36 37 38 39 40 41 42 43 44 45 46 47 48 49 50
000
FPUS83 KFGF 222331
OPUFGF
PRAIRIE TO PINES WEATHER ROUNDUP
NATIONAL WEATHER SERVICE EASTERN NORTH DAKOTA/GRAND FORKS ND
600 PM CDT SUN OCT 22 2017

 **SATELLITE DATA USED TO AUGMENT SKY COVER AT AUTOMATED STATIONS**
 *****  WEATHER ACROSS EASTERN NORTH DAKOTA  *****

CITY           SKY/WX    TMP DP  RH WIND       PRES   REMARKS
GRAND FORKS    CLOUDY    63  30  28 SW16G23   29.66F
GRAND FORKS AF FAIR      62  28  28 SW17G28   29.65F
GRAND CITY NWS NOT AVBL
BUXTON           N/A     62  31  31 SW12        N/A
DEVILS LAKE    LGT RAIN  56  39  53 SW17      29.63S
FARGO          MOCLDY    61  31  32 S12G33    29.73F
WAHPETON ARPT  NOT AVBL
$$

 *****  WEATHER ACROSS CENTRAL AND WESTERN NORTH DAKOTA  *****

CITY           SKY/WX    TMP DP  RH WIND       PRES   REMARKS
JAMESTOWN      CLOUDY    62  26  25 SW15G24   29.69S
BISMARCK       CLOUDY    63  33  32 W9        29.68S
MINOT          FAIR      57  41  55 S8        29.57F
MINOT AFB      FAIR      56  42  58 SW13      29.55
GARRISON         N/A     56  42  59 S7        29.60F
WILLISTON      MOCLDY    66  39  37 W20       29.55R
DICKINSON      MOCLDY    63  35  35 W13       29.64S
HETTINGER      MOCLDY    63  34  33 W14       29.72S
$$

 *****  OTHER OBSERVATIONS NORTHEAST NORTH DAKOTA  *****

CITY           SKY/WX    TMP DP  RH WIND       PRES   REMARKS
WALHALLA       DRIZZLE  N/A N/A N/A SW20G28   29.56F
LANGDON        NOT AVBL
CAVALIER       FAIR      59  34  38 SW14G20   29.61S
GRAFTON        NOT AVBL
CANDO          CLOUDY    50  43  76 SW14      29.63R
FORT TOTTEN    NOT AVBL
ROLLA          MOCLDY    46  39  76 SW15      29.58R
RUGBY          NOT AVBL
 ***** THE ABOVE OBSERVATIONS ARE NON NWS ARE NOT QUALITY
        CONTROLLED AND MAY MIS-REPORT RAIN FOR SNOW...
$$

 *****  OTHER OBSERVATIONS SOUTHEAST NORTH DAKOTA *****

CITY           SKY/WX    TMP DP  RH WIND       PRES   REMARKS
COOPERSTOWN    FAIR      59  30  33 SW17G23   29.68S
VALLEY CITY    NOT AVBL
OAKES          NOT AVBL
GWINNER        CLEAR     61  27  27 S9        29.73F
SHEYENNE NWR     N/A     62  28  27 SW8       29.95S
BUFFALO          N/A     62  27  26 E16         N/A
WYNDMERE       NOT AVBL
 ***** THE ABOVE OBSERVATIONS ARE NON NWS ARE NOT QUALITY
       CONTROLLED AND MAY MIS-REPORT RAIN FOR SNOW...
$$

  *****  WEATHER ACROSS NORTHERN MINNESOTA  *****

CITY           SKY/WX    TMP DP  RH WIND       PRES   REMARKS
FLAG ISLAND    FAIR      55  32  41 SW12      29.63S
WARROAD        FAIR      59  30  33 SW10G22   29.66F
ROSEAU         FAIR      61  28  29 SW18G29   29.66S
HALLOCK        LGT RAIN  57  34  41 S10       29.63F
THF RVR FALLS  LGT RAIN  58  30  34 SW20G40   29.71R
HALSTAD          N/A     60  30  32 S14         N/A
FOSSTON        CLOUDY    55  27  33 SW20G30   29.75R
BAUDETTE       FAIR      57  28  33 S10       29.69F
WASKISH        FAIR      57  30  35 S7        29.73F
CROOKSTON      FAIR      61  28  29 SW15      29.69F
$$
  *****  WEATHER ACROSS CENTRAL AND WEST MINNESOTA  *****

CITY           SKY/WX    TMP DP  RH WIND       PRES   REMARKS
BEMIDJI        FAIR      57  27  31 S8        29.76S
PARK RAPIDS    FAIR      56  32  40 S8        29.79F
WADENA         FAIR      54  34  47 S7        29.81S
DETROIT LAKES  FAIR      57  32  38 S7        29.79R
MOORHEAD       FAIR      63  28  27 S10G22    29.74F
FERGUS FALLS   FAIR      59  34  38 SW9       29.80R
ELBOW LAKE     FAIR      57  34  41 S7        29.82R
MORRIS MN      FAIR      57  36  44 SW8       29.82S
STAPLES        FAIR      54  30  40 S5        29.82F
WHEATON        FAIR      61  28  29 S8        29.81S
$$
  *****  WEATHER ELSEWHERE ACROSS MINNESOTA  *****

CITY           SKY/WX    TMP DP  RH WIND       PRES   REMARKS
DULUTH         FAIR      53  30  41 W9        29.86R
INTRNTL FALLS  FAIR      51  30  44 SW6       29.74F
ELY            FAIR      52  28  40 S3        29.83R
CLOQUET        FAIR      54  25  32 SW6       29.87R
BRAINERD       FAIR      57  31  37 S8        29.85F
HIBBING        FAIR      53  28  38 SW3       29.82F
ALEXANDRIA     FAIR      58  33  39 S8        29.84F
SAINT CLOUD    FAIR      55  36  48 S7        29.88F
MINNEAPOLIS    FAIR      62  32  32 SW5       29.93F
$$

  *****  WEATHER ACROSS SOUTH DAKOTA  *****

CITY           SKY/WX    TMP DP  RH WIND       PRES   REMARKS
SIOUX FALLS    FAIR      65  30  27 SW9       29.89F
BROOKINGS      FAIR      62  30  29 SW10      29.86F
WATERTOWN      FAIR      59  32  36 SW12      29.82F
HURON          FAIR      63  33  32 SW6       29.82F
SISSETON         N/A     63  32  31 S12       29.78F
ABERDEEN       FAIR      64  28  25 S14       29.77F
MITCHELL       FAIR      67  30  25 SW7       29.85F
PIERRE         FAIR      68  32  26 SW12      29.78F
MOBRIDGE       FAIR      66  33  29 S12       29.71F
RAPID CITY     FAIR      68  29  23 W15       29.84S
$$

  *****  SOME WEATHER IN NEARBY STATES *****

CITY           SKY/WX    TMP DP  RH WIND       PRES   REMARKS
GLASGOW MT     FAIR      56  38  50 NW15G28   29.64R
GREAT FALLS MT FAIR      53  26  35 W36G48    29.89R
CHEYENNE WY    FAIR      60  22  23 W31G38    30.12S
SCOTTSBLUFF NE FAIR      66  29  24 W20G31    29.99S
OMAHA NE       FAIR      68  29  23 S9        30.01S
DES MOINES IA  FAIR      63  29  27 CALM      30.03S HAZE
DAVENPORT IA   FAIR      52  48  86 CALM      30.08S
CHICAGO IL     LGT RAIN  52  50  93 N8        30.04R
EAU CLAIRE WI  FAIR      56  34  43 SW3       29.95S
LA CROSSE WI   FAIR      55  45  68 S7        30.00F
$$

  *****  SOME NATIONAL WEATHER *****

CITY           SKY/WX    TMP DP  RH WIND       PRES   REMARKS
LA GUARDIA NY  MOCLDY    67  53  61 S7        30.35S
RALEIGH NC     MOCLDY    71  58  63 VRB3      30.28R
ATLANTA GA     MOCLDY    74  65  73 SE16G23   30.13S
NEW ORLEANS LA MOCLDY    73  61  65 E6        29.98F
OKLAHOMA CITY  FAIR      66  33  29 NW5       30.14F
ALBUQUERQUE NM FAIR      68  18  14 CALM      30.31F
SALT LAKE CITY PTSUNNY   68  28  22 S6        30.32R
LOS ANGELES CA FAIR      83  31  15 W13       30.06S
BOISE ID       LGT RAIN  61  46  57 N13G18    30.29R
SEATTLE WA     PTSUNNY   57  48  72 S13       30.30R
$$

*** WEATHER ACROSS MANITOBA...SASKATCHEWAN AND ONTARIO ***
                ***ONTARIO***

CITY           SKY/WX    TMP DP  RH WIND       PRES   REMARKS
GERALDTON      MOCLDY    48  41  76 SW12      29.77R
THUNDER BAY    PTCLDY    52  36  54 SW5       29.81R
SIOUX LOOKOUT  PTCLDY    50  32  50 SW12      29.69R
TORONTO        MOCLDY    63  52  67 E6        30.13S
BIG TROUT LK   LGT RAIN  43  36  75 W17G33    29.37R
PICKLE LAKE    PTCLDY    43  36  75 SW12G24   29.62R
DRYDEN         CLEAR     50  34  53 SW9       29.68S
KENORA         MOCLDY    52  36  54 S8        29.63F
$$
                *** MANITOBA***

CITY           SKY/WX    TMP DP  RH WIND       PRES   REMARKS
BRANDON        MOCLDY    52  37  58 SW16G24   29.51F
DAUPHIN        CLOUDY    46  41  81 NE3       29.48F
ISLAND LAKE    LGT RAIN  41  36  81 W23G35    29.36R
PILOT MOUND      N/A     48  37  66 SW13        N/A
THE PAS        MOCLDY    41  32  70 NW12      29.47R
THOMPSON       LGT SNOW  32  32 100 W15G22    29.26R FOG     WCI  22
WINNIPEG       MOCLDY    55  34  44 SW20G28   29.56F
LYNN LAKE      CLOUDY    34  32  93 NW10G17   29.39R
CHURCHILL      LGT RAIN  36  36 100 N30G37    28.87F FOG
GILLAM         LGT RAIN  36  34  93 W16G24    29.06R
$$
                ***SASKATCHEWAN***

CITY           SKY/WX    TMP DP  RH WIND       PRES   REMARKS
ESTEVAN        PTCLDY    52  45  76 S13       29.48F
KINDERSLEY     PTCLDY    52  30  43 NW18G28   29.57R
LLOYDMINSTER   CLOUDY    39  34  81 NW21      29.58R
PRINCE ALBERT  CLOUDY    37  36  93 NW7       29.55R
REGINA         PTCLDY    57  30  35 W24G33    29.43R
YORKTON        CLOUDY    43  41  93 NE9       29.45R


USA.gov is the U.S. government's official web portal to all federal, state and local government web resources and services.